Weather History for Bangor, ME

Change the Weather History Date:

Sunday, March 23, 2014

  Actual Average Record
Temperature  
Mean Temperature 22 °F 33 °F  
Max Temperature 35 °F 42 °F 67 °F (1953)
Min Temperature 9 °F 23 °F 1 °F (1934)
Degree Days  
Heating Degree Days 43 32  
Month to date heating degree days 1008 833  
Since 1 July heating degree days 6760 6479  
Cooling Degree Days 0 0  
Month to date cooling degree days 0 0  
Year to date cooling degree days 0 0  
Moisture  
Dew Point 10 °F    
Average Humidity 55    
Maximum Humidity 81    
Minimum Humidity 28    
Precipitation  
Precipitation 0.00 in 0.12 in 2.04 in (2010)
Month to date precipitation 2.15 2.42  
Year to date precipitation 7.32 7.83  
Snow  
Snow 0.00 in 0.30 in 4.00 in (1991)
Month to date snowfall 15.7 9.3  
Since 1 July snowfall 78.9 60.0  
Snow Depth 10.00 in    
Sea Level Pressure  
Sea Level Pressure 29.92 in    
Wind  
Wind Speed 9 mph (WNW)    
Max Wind Speed 28 mph    
Max Gust Speed 34 mph    
Visibility 10 miles    
Events      
T = Trace of Precipitation, MM = Missing Value Source: NWS Daily Summary

Daily Weather History Graph

Daily Weather History Graph

Search for Another Location

Airport:

Trip Planner

Search our weather history database for the weather conditions in past years. The results will help you decide how hot, cold, wet, or windy it might be!

Date:

Astronomy

Mar. 23, 2014 Rise Set
Actual Time 6:32 AM EDT 6:51 PM EDT
Civil Twilight 6:03 AM EDT 7:20 PM EDT
Nautical Twilight 5:29 AM EDT 7:55 PM EDT
Astronomical Twilight 4:53 AM EDT 8:30 PM EDT
Moon 1:17 AM EDT (3/23) 10:58 AM EDT (3/23)
Length of Visible Light 13h 17m
Length of Day
12h 18m
Waning Gibbous, 55% of the Moon is Illuminated
Mar 23
Waning Gibbous
Mar 23
Last Quarter
Mar 30
New
Apr 7
First Quarter
Apr 15
Full

Hourly Weather History & Observations

Time (EDT) Temp. Windchill Dew Point Humidity Pressure Visibility Wind Dir Wind Speed Gust Speed Precip Events Conditions
12:53 AM 27.0 °F 23.0 °F 19.9 °F 75% 29.86 in 10.0 mi SSW 3.5 mph - N/A   Partly Cloudy
1:53 AM 26.1 °F 20.5 °F 19.0 °F 75% 29.87 in 10.0 mi SW 4.6 mph - N/A   Scattered Clouds
2:53 AM 23.0 °F 17.0 °F 18.0 °F 81% 29.86 in 10.0 mi SSW 4.6 mph - N/A   Partly Cloudy
3:53 AM 24.1 °F - 19.9 °F 84% 29.85 in 10.0 mi Calm Calm - N/A   Scattered Clouds
4:53 AM 25.0 °F 18.1 °F 19.9 °F 81% 29.83 in 10.0 mi SSW 5.8 mph - N/A   Mostly Cloudy
5:53 AM 25.0 °F 18.1 °F 19.0 °F 78% 29.84 in 10.0 mi SSW 5.8 mph - N/A   Mostly Cloudy
6:53 AM 26.1 °F 17.6 °F 19.9 °F 78% 29.85 in 10.0 mi South 8.1 mph - N/A   Mostly Cloudy
7:53 AM 27.0 °F 19.5 °F 21.0 °F 78% 29.85 in 10.0 mi South 6.9 mph - N/A   Mostly Cloudy
8:53 AM 30.9 °F 27.5 °F 21.9 °F 69% 29.86 in 10.0 mi Variable 3.5 mph - N/A   Mostly Cloudy
9:53 AM 33.1 °F 24.9 °F 19.9 °F 59% 29.88 in 10.0 mi WNW 10.4 mph 21.9 mph N/A   Mostly Cloudy
10:53 AM 35.1 °F 25.9 °F 18.0 °F 50% 29.88 in 10.0 mi WNW 13.8 mph 20.7 mph N/A   Mostly Cloudy
11:53 AM 34.0 °F 23.0 °F 10.9 °F 38% 29.89 in 10.0 mi NW 18.4 mph 26.5 mph N/A   Scattered Clouds
12:53 PM 32.0 °F 21.6 °F 3.9 °F 31% 29.89 in 10.0 mi WNW 15.0 mph 34.5 mph N/A   Scattered Clouds
1:53 PM 32.0 °F 21.2 °F 3.9 °F 31% 29.89 in 10.0 mi WNW 16.1 mph 26.5 mph N/A   Scattered Clouds
2:53 PM 30.0 °F 20.0 °F 1.9 °F 30% 29.90 in 10.0 mi WNW 12.7 mph 29.9 mph N/A   Partly Cloudy
3:53 PM 28.9 °F 15.8 °F 6.1 °F 38% 29.91 in 10.0 mi NNW 20.7 mph 27.6 mph N/A   Partly Cloudy
4:53 PM 27.0 °F 13.9 °F 6.1 °F 41% 29.92 in 10.0 mi NNW 18.4 mph - N/A   Partly Cloudy
5:53 PM 24.1 °F 9.0 °F 3.9 °F 42% 29.93 in 10.0 mi NW 21.9 mph - N/A   Partly Cloudy
6:53 PM 21.9 °F 5.5 °F -0.0 °F 38% 29.96 in 10.0 mi NW 24.2 mph - N/A   Partly Cloudy
7:53 PM 18.0 °F 0.6 °F 1.0 °F 48% 30.01 in 10.0 mi NNW 23.0 mph - N/A   Partly Cloudy
8:53 PM 14.0 °F -3.4 °F -0.9 °F 52% 30.06 in 10.0 mi NNW 19.6 mph - N/A   Partly Cloudy
9:53 PM 12.0 °F -4.0 °F -2.0 °F 53% 30.06 in 10.0 mi NW 15.0 mph - N/A   Clear
10:53 PM 10.9 °F -4.7 °F -2.9 °F 54% 30.07 in 10.0 mi NW 13.8 mph - N/A   Clear
11:53 PM 10.0 °F -7.1 °F -2.0 °F 58% 30.07 in 10.0 mi NW 16.1 mph - N/A   Clear